sat.trackr.live / text

‹ back to catalog

ZHUHAI-1 03D

NORAD 44538 · 2019-060E

PAYLOAD ACTIVE UNKNOWN

§ Identity

Operator
Country
PRC
Launch date
2019-09-19
Launch site
JSC
Launch vehicle
Mass (kg)
RCS (m²)

External: N2YO · Heavens-Above · Gunter

§ Orbital elements

Epoch: 2026-05-25T03:53:54.836736Z

Period
93.01 min
Inclination
97.5363°
Eccentricity
0.0007484
Mean motion
15.48281131 rev/d
Perigee alt
416.7 km
Apogee alt
426.8 km
Semi-major
6,799.9 km
B*
5.2787e-4
RAAN
294.0378°
Arg perigee
35.8999°
Mean anomaly
324.2752°
Rev number
37,251

§ Raw data

ZHUHAI-1 03D1 44538U 19060E   26145.16244024  .00027849  00000+0  52787-3 0  99922 44538  97.5363 294.0378 0007484  35.8999 324.2752 15.48281131372515

JSON: /api/v1/satellites/44538 · /tle

For live sub-satellite position, see the globe view (requires WebGL).

§ Visibility from observer

Set your observer location to see the next 7 days of passes ≥ 10°. The values pass through the URL so the page stays shareable.

No JS? Fill the form by hand. The geolocation button needs JavaScript.

§ Radio — SatNOGS DB

ModeDescriptionDownlinkUplink
FM S-band telemetry 2.213 GHz

1 transmitter · refreshed weekly from db.satnogs.org